FW6466 Weather Reports


time (UTC)temp
C
wind
direction
speed
KPH
gust
KPH
rain 1hr
cm
rain 24hr
cm
rain mn
cm
humidity
%
barometer
mb
20260504100517 6 200 1.6 6.4 0.00 0.00 0.00 63 1008.7
20260504081517 6 225 1.6 3.2 0.00 0.00 0.00 61 1008.9
20260504080517 6 180 0.0 1.6 0.00 0.00 0.00 61 1009.0
20260504050017 9 225 1.6 1.6 0.00 0.00 0.00 54 1009.6
20260504045408 9 180 1.6 1.6 0.00 0.00 0.00 55 1009.7
20260504044517 9 272 1.6 6.4 0.00 0.00 0.00 55 1009.7
20260504043820 9 225 1.6 4.8 0.00 0.00 0.00 55 1009.8
20260504042516 9 142 1.6 8.0 0.00 0.00 0.00 56 1010.0
20260504041517 8 321 3.2 12.9 0.00 0.00 0.00 55 1010.1
20260504040516 8 317 1.6 4.8 0.00 0.00 0.00 54 1010.1
20260504035822 8 45 1.6 1.6 0.00 0.00 0.00 56 1010.1
20260504035116 8 174 1.6 6.4 0.00 0.00 0.00 56 1010.1
20260504034309 7 0.0 1.6 0.00 0.00 0.00 55 1009.9
20260504033517 7 359 0.0 3.2 0.00 0.00 0.00 54 1009.8
20260504032516 7 169 1.6 3.2 0.00 0.00 0.00 53 1009.6
20260504031937 7 180 1.6 3.2 0.00 0.00 0.00 53 1009.6
20260504030852 7 180 3.2 4.8 0.00 0.00 0.00 52 1009.6
20260504030017 7 205 3.2 6.4 0.00 0.00 0.00 53 1009.6
20260504025016 7 191 3.2 4.8 0.00 0.00 0.00 53 1009.6
20260504024017 7 216 3.2 3.2 0.00 0.00 0.00 53 1009.6
20260504023357 7 180 3.2 3.2 0.00 0.00 0.00 52 1009.6
20260504022517 7 216 3.2 3.2 0.00 0.00 0.00 53 1009.6
20260504021809 7 225 3.2 3.2 0.00 0.00 0.00 52 1009.6
20260504021017 7 217 3.2 3.2 0.00 0.00 0.00 52 1009.6
20260504020307 7 180 1.6 3.2 0.00 0.00 0.00 50 1009.5
20260504015516 7 200 3.2 3.2 0.00 0.00 0.00 50 1009.5
20260504014809 7 225 3.2 3.2 0.00 0.00 0.00 48 1009.5
20260504013812 7 180 3.2 3.2 0.00 0.00 0.00 49 1009.5
20260504013016 8 206 3.2 3.2 0.00 0.00 0.00 48 1009.4
20260504012041 8 180 1.6 3.2 0.00 0.00 0.00 46 1009.3
20260504011517 8 196 1.6 3.2 0.00 0.00 0.00 45 1009.2
20260504010516 9 183 1.6 3.2 0.00 0.00 0.00 44 1009.1
20260504005808 10 270 1.6 6.4 0.00 0.00 0.00 42 1009.1
20260504004516 10 241 1.6 11.3 0.00 0.00 0.00 42 1009.0
20260504003517 10 316 3.2 12.9 0.00 0.00 0.00 40 1008.9
20260504002536 10 275 3.2 8.0 0.00 0.00 0.00 40 1008.8
20260504001537 10 226 1.6 6.4 0.00 0.00 0.00 39 1008.6
20260504000819 11 225 3.2 1.6 0.00 0.00 0.00 37 1008.6
20260504000016 11 309 4.8 9.7 0.00 0.00 0.00 36 1008.5
20260503235356 11 338 4.8 14.5 0.00 0.00 0.00 34 1008.4
20260503234516 12 308 4.8 11.3 0.00 0.00 0.00 34 1008.3
20260503233809 12 270 8.0 8.0 0.00 0.00 0.00 33 1008.2
20260503232517 12 324 11.3 22.5 0.00 0.00 0.00 31 1008.1
20260503231813 13 270 8.0 19.3 0.00 0.00 0.00 31 1008.0
20260503231016 13 336 9.7 19.3 0.00 0.00 0.00 30 1007.9
20260503230309 13 338 11.3 22.5 0.00 0.00 0.00 29 1007.8
20260503225537 13 318 11.3 30.6 0.00 0.00 0.00 30 1007.8
20260503224614 13 180 11.3 17.7 0.00 0.00 0.00 30 1007.7
20260503223517 13 320 12.9 27.4 0.00 0.00 0.00 29 1007.6
20260503222516 13 316 11.3 25.7 0.00 0.00 0.00 29 1007.6
20260503221834 13 315 6.4 17.7 0.00 0.00 0.00 28 1007.6
20260503220515 13 295 4.8 25.7 0.00 0.00 0.00 28 1007.6
20260503215516 13 330 11.3 30.6 0.00 0.00 0.00 27 1007.6
20260503214516 14 320 11.3 29.0 0.00 0.00 0.00 26 1007.7
20260503213809 15 293 6.4 16.1 0.00 0.00 0.00 25 1007.7
20260503212810 15 135 8.0 16.1 0.00 0.00 0.00 27 1007.7
20260503211808 15 0 9.7 9.7 0.00 0.00 0.00 27 1007.7
20260503211016 15 314 11.3 32.2 0.00 0.00 0.00 26 1007.7
20260503210016 15 291 9.7 32.2 0.00 0.00 0.00 27 1007.7
20260503205017 15 307 9.7 19.3 0.00 0.00 0.00 27 1007.8
20260503204407 15 45 9.7 12.9 0.00 0.00 0.00 28 1007.9
20260503203516 15 323 11.3 27.4 0.00 0.00 0.00 27 1007.9
20260503202555 15 45 8.0 9.7 0.00 0.00 0.00 29 1008.0
20260503201821 15 90 8.0 16.1 0.00 0.00 0.00 29 1008.0
20260503201017 14 319 8.0 29.0 0.00 0.00 0.00 30 1008.0
20260503200017 14 304 8.0 16.1 0.00 0.00 0.00 30 1008.2
20260503195329 13 315 6.4 8.0 0.00 0.00 0.00 32 1008.4
20260503194313 14 315 8.0 24.1 0.00 0.00 0.00 30 1008.5
20260503193017 14 331 11.3 22.5 0.00 0.00 0.00 30 1008.6
20260503192015 13 325 11.3 37.0 0.00 0.00 0.00 31 1008.6
20260503191017 12 305 11.3 29.0 0.00 0.00 0.00 32 1008.7
20260503190351 13 315 6.4 12.9 0.00 0.00 0.00 33 1008.9
20260503185309 12 45 9.7 14.5 0.00 0.00 0.00 33 1009.0
20260503184517 12 311 11.3 24.1 0.00 0.00 0.00 33 1009.0
20260503183810 12 338 8.0 20.9 0.00 0.00 0.00 33 1009.1
20260503182516 13 320 9.7 29.0 0.00 0.00 0.00 34 1009.1
20260503181515 12 333 8.0 27.4 0.00 0.00 0.00 35 1009.2
20260503180516 12 323 11.3 20.9 0.00 0.00 0.00 35 1009.2
20260503175520 11 323 12.9 35.4 0.00 0.00 0.00 35 1009.3
20260503174834 11 315 9.7 16.1 0.00 0.00 0.00 37 1009.4
20260503174016 11 321 12.9 27.4 0.00 0.00 0.00 37 1009.4
20260503173018 11 324 9.7 22.5 0.00 0.00 0.00 39 1009.5
20260503172016 11 327 9.7 22.5 0.00 0.00 0.00 39 1009.5
20260503171313 10 315 8.0 16.1 0.00 0.00 0.00 42 1009.5
20260503170356 10 0 8.0 17.7 0.00 0.00 0.00 42 1009.5
20260503150901 8 315 6.4 17.7 0.00 0.00 0.00 49 1010.1
20260503140313 10 315 8.0 16.1 0.00 0.00 0.00 47 1010.3
20260503130516 7 325 8.0 17.7 0.00 0.00 0.00 60 1010.5
20260503110309 4 293 6.4 11.3 0.00 0.00 0.00 68 1010.0